Time,TemperatureF,DewpointF,PressureIn,WindDirection,WindDirectionDegrees,WindSpeedMPH,WindSpeedGustMPH,Humidity,HourlyPrecipIn,Conditions,Clouds,dailyrainin,SoftwareType,DateUTC
2013-07-06 00:02:00,80.0,-99.9,30.25,SSW,208,11.0,11.0,-999,-99.99,,,-99.99,,2013-07-06 04:02:00,
2013-07-06 00:22:00,79.0,-99.9,30.25,SW,215,6.0,9.0,-999,-99.99,,,-99.99,,2013-07-06 04:22:00,
2013-07-06 00:33:00,79.0,-99.9,30.25,SSW,211,7.0,8.0,-999,-99.99,,,-99.99,,2013-07-06 04:33:00,
2013-07-06 00:43:00,79.0,-99.9,30.25,SSW,196,7.0,8.0,-999,-99.99,,,-99.99,,2013-07-06 04:43:00,
2013-07-06 00:53:00,79.0,-99.9,30.25,SSW,194,7.0,8.0,-999,-99.99,,,-99.99,,2013-07-06 04:53:00,
2013-07-06 01:02:00,79.0,-99.9,30.25,SSW,201,7.0,8.0,-999,-99.99,,,-99.99,,2013-07-06 05:02:00,
2013-07-06 01:12:00,79.0,-99.9,30.25,SSW,201,7.0,8.0,-999,-99.99,,,-99.99,,2013-07-06 05:12:00,
2013-07-06 01:34:00,79.0,-99.9,30.24,South,184,7.0,8.0,-999,-99.99,,,-99.99,,2013-07-06 05:34:00,
2013-07-06 01:43:00,79.0,-99.9,30.24,SSW,195,7.0,8.0,-999,-99.99,,,-99.99,,2013-07-06 05:43:00,
2013-07-06 01:53:00,79.0,-99.9,30.24,SSW,198,7.0,8.0,-999,-99.99,,,-99.99,,2013-07-06 05:53:00,
2013-07-06 02:02:00,79.0,-99.9,30.23,South,187,7.0,8.0,-999,-99.99,,,-99.99,,2013-07-06 06:02:00,
2013-07-06 02:12:00,79.0,-99.9,30.23,SSW,195,9.0,9.0,-999,-99.99,,,-99.99,,2013-07-06 06:12:00,
2013-07-06 02:43:00,79.0,-99.9,30.22,SSW,193,8.0,10.0,-999,-99.99,,,-99.99,,2013-07-06 06:43:00,
2013-07-06 02:53:00,79.0,-99.9,30.22,South,186,9.0,10.0,-999,-99.99,,,-99.99,,2013-07-06 06:53:00,
2013-07-06 03:02:00,79.0,-99.9,30.21,South,186,9.0,9.0,-999,-99.99,,,-99.99,,2013-07-06 07:02:00,
2013-07-06 03:12:00,79.0,-99.9,30.21,South,181,9.0,10.0,-999,-99.99,,,-99.99,,2013-07-06 07:12:00,
2013-07-06 03:33:00,79.0,-99.9,30.21,South,183,9.0,10.0,-999,-99.99,,,-99.99,,2013-07-06 07:33:00,
2013-07-06 03:44:00,79.0,-99.9,30.21,South,175,9.0,9.0,-999,-99.99,,,-99.99,,2013-07-06 07:44:00,
2013-07-06 03:52:00,79.0,-99.9,30.21,SSE,163,8.0,10.0,-999,-99.99,,,-99.99,,2013-07-06 07:52:00,
2013-07-06 04:02:00,78.0,-99.9,30.21,South,176,7.0,8.0,-999,-99.99,,,-99.99,,2013-07-06 08:02:00,
2013-07-06 04:34:00,78.0,-99.9,30.20,South,169,7.0,8.0,-999,-99.99,,,-99.99,,2013-07-06 08:34:00,
2013-07-06 04:54:00,79.0,-99.9,30.21,South,178,8.0,9.0,-999,-99.99,,,-99.99,,2013-07-06 08:54:00,
2013-07-06 05:02:00,78.0,-99.9,30.21,South,183,7.0,8.0,-999,-99.99,,,-99.99,,2013-07-06 09:02:00,
2013-07-06 05:22:00,78.0,-99.9,30.21,South,183,7.0,8.0,-999,-99.99,,,-99.99,,2013-07-06 09:22:00,
2013-07-06 05:34:00,79.0,-99.9,30.20,SSE,167,8.0,9.0,-999,-99.99,,,-99.99,,2013-07-06 09:34:00,
2013-07-06 05:53:00,79.0,-99.9,30.21,SSE,161,8.0,9.0,-999,-99.99,,,-99.99,,2013-07-06 09:53:00,
2013-07-06 06:02:00,79.0,-99.9,30.21,South,169,9.0,11.0,-999,-99.99,,,-99.99,,2013-07-06 10:02:00,
2013-07-06 06:12:00,79.0,-99.9,30.21,South,169,9.0,10.0,-999,-99.99,,,-99.99,,2013-07-06 10:12:00,
2013-07-06 06:22:00,79.0,-99.9,30.21,South,169,9.0,10.0,-999,-99.99,,,-99.99,,2013-07-06 10:22:00,
2013-07-06 07:01:00,79.0,-99.9,30.22,SSE,168,9.0,9.0,-999,-99.99,,,-99.99,,2013-07-06 11:01:00,
2013-07-06 07:43:00,80.0,-99.9,30.23,SSE,164,7.0,8.0,-999,-99.99,,,-99.99,,2013-07-06 11:43:00,
2013-07-06 07:53:00,80.0,-99.9,30.23,South,169,7.0,8.0,-999,-99.99,,,-99.99,,2013-07-06 11:53:00,
2013-07-06 08:01:00,80.0,-99.9,30.23,SSE,162,5.0,6.0,-999,-99.99,,,-99.99,,2013-07-06 12:01:00,
2013-07-06 08:34:00,80.0,-99.9,30.24,SE,141,6.0,7.0,-999,-99.99,,,-99.99,,2013-07-06 12:34:00,
2013-07-06 08:43:00,80.0,-99.9,30.24,SE,144,7.0,8.0,-999,-99.99,,,-99.99,,2013-07-06 12:43:00,
2013-07-06 08:52:00,80.0,-99.9,30.24,SSE,151,8.0,9.0,-999,-99.99,,,-99.99,,2013-07-06 12:52:00,
2013-07-06 09:01:00,80.0,-99.9,30.24,SSE,147,11.0,11.0,-999,-99.99,,,-99.99,,2013-07-06 13:01:00,
2013-07-06 09:52:00,81.0,-99.9,30.24,SE,132,10.0,11.0,-999,-99.99,,,-99.99,,2013-07-06 13:52:00,
2013-07-06 10:02:00,80.0,-99.9,30.24,SE,136,11.0,11.0,-999,-99.99,,,-99.99,,2013-07-06 14:02:00,
2013-07-06 10:34:00,80.0,-99.9,30.25,SE,138,9.0,10.0,-999,-99.99,,,-99.99,,2013-07-06 14:34:00,
2013-07-06 10:43:00,81.0,-99.9,30.25,SE,138,8.0,9.0,-999,-99.99,,,-99.99,,2013-07-06 14:43:00,
2013-07-06 10:53:00,80.0,-99.9,30.25,SSE,147,9.0,10.0,-999,-99.99,,,-99.99,,2013-07-06 14:53:00,
2013-07-06 11:02:00,80.0,-99.9,30.25,SE,145,10.0,11.0,-999,-99.99,,,-99.99,,2013-07-06 15:02:00,
2013-07-06 11:34:00,80.0,-99.9,30.25,SSE,149,11.0,13.0,-999,-99.99,,,-99.99,,2013-07-06 15:34:00,
2013-07-06 11:43:00,80.0,-99.9,30.25,SSE,154,13.0,14.0,-999,-99.99,,,-99.99,,2013-07-06 15:43:00,
2013-07-06 11:53:00,80.0,-99.9,30.25,SSE,156,13.0,14.0,-999,-99.99,,,-99.99,,2013-07-06 15:53:00,
2013-07-06 12:09:00,80.0,-99.9,30.25,SSE,150,12.0,13.0,-999,-99.99,,,-99.99,,2013-07-06 16:09:00,
2013-07-06 12:51:00,80.0,-99.9,30.25,SSE,157,13.0,14.0,-999,-99.99,,,-99.99,,2013-07-06 16:51:00,
2013-07-06 13:02:00,81.0,-99.9,30.25,SSE,158,12.0,13.0,-999,-99.99,,,-99.99,,2013-07-06 17:02:00,
2013-07-06 14:10:00,80.0,-99.9,30.24,SSE,162,11.0,13.0,-999,-99.99,,,-99.99,,2013-07-06 18:10:00,
2013-07-06 14:16:00,80.0,-99.9,30.24,SSE,153,10.0,12.0,-999,-99.99,,,-99.99,,2013-07-06 18:16:00,
2013-07-06 14:29:00,81.0,-99.9,30.23,SSE,153,12.0,13.0,-999,-99.99,,,-99.99,,2013-07-06 18:29:00,
2013-07-06 15:03:00,80.0,-99.9,30.22,SSE,148,13.0,14.0,-999,-99.99,,,-99.99,,2013-07-06 19:03:00,
2013-07-06 15:11:00,80.0,-99.9,30.22,SSE,152,13.0,15.0,-999,-99.99,,,-99.99,,2013-07-06 19:11:00,
2013-07-06 16:01:00,80.0,-99.9,30.20,SSE,153,13.0,15.0,-999,-99.99,,,-99.99,,2013-07-06 20:01:00,
2013-07-06 16:19:00,81.0,-99.9,30.20,SSE,167,12.0,14.0,-999,-99.99,,,-99.99,,2013-07-06 20:19:00,
2013-07-06 16:27:00,81.0,-99.9,30.20,SSE,165,13.0,13.0,-999,-99.99,,,-99.99,,2013-07-06 20:27:00,
2013-07-06 17:02:00,81.0,-99.9,30.19,SSE,157,12.0,13.0,-999,-99.99,,,-99.99,,2013-07-06 21:02:00,
2013-07-06 17:12:00,81.0,-99.9,30.19,SSE,166,11.0,13.0,-999,-99.99,,,-99.99,,2013-07-06 21:12:00,
2013-07-06 17:38:00,81.0,-99.9,30.19,SSE,167,11.0,13.0,-999,-99.99,,,-99.99,,2013-07-06 21:38:00,
2013-07-06 17:50:00,81.0,-99.9,30.18,SSE,166,10.0,11.0,-999,-99.99,,,-99.99,,2013-07-06 21:50:00,
2013-07-06 18:20:00,81.0,-99.9,30.17,SSE,160,11.0,13.0,-999,-99.99,,,-99.99,,2013-07-06 22:20:00,
2013-07-06 18:37:00,82.0,-99.9,30.17,South,182,14.0,15.0,-999,-99.99,,,-99.99,,2013-07-06 22:37:00,
2013-07-06 19:02:00,82.0,-99.9,30.16,South,179,14.0,17.0,-999,-99.99,,,-99.99,,2013-07-06 23:02:00,
2013-07-06 19:09:00,82.0,-99.9,30.16,South,179,15.0,17.0,-999,-99.99,,,-99.99,,2013-07-06 23:09:00,
2013-07-06 19:27:00,82.0,-99.9,30.16,South,182,16.0,17.0,-999,-99.99,,,-99.99,,2013-07-06 23:27:00,
2013-07-06 19:53:00,82.0,-99.9,30.16,South,181,14.0,17.0,-999,-99.99,,,-99.99,,2013-07-06 23:53:00,
2013-07-06 20:13:00,81.0,-99.9,30.16,South,181,15.0,17.0,-999,-99.99,,,-99.99,,2013-07-07 00:13:00,
2013-07-06 20:29:00,81.0,-99.9,30.16,SSW,199,16.0,17.0,-999,-99.99,,,-99.99,,2013-07-07 00:29:00,
2013-07-06 21:01:00,80.0,-99.9,30.17,SSW,193,14.0,15.0,-999,-99.99,,,-99.99,,2013-07-07 01:01:00,
2013-07-06 21:11:00,80.0,-99.9,30.17,SSW,197,11.0,13.0,-999,-99.99,,,-99.99,,2013-07-07 01:11:00,
2013-07-06 22:02:00,80.0,-99.9,30.18,SSW,197,13.0,15.0,-999,-99.99,,,-99.99,,2013-07-07 02:02:00,
2013-07-06 22:11:00,80.0,-99.9,30.18,SSW,197,11.0,14.0,-999,-99.99,,,-99.99,,2013-07-07 02:11:00,
2013-07-06 22:24:00,80.0,-99.9,30.19,SSW,196,13.0,15.0,-999,-99.99,,,-99.99,,2013-07-07 02:24:00,
2013-07-06 22:35:00,80.0,-99.9,30.19,SSW,196,13.0,15.0,-999,-99.99,,,-99.99,,2013-07-07 02:35:00,
2013-07-06 22:45:00,80.0,-99.9,30.19,SSW,197,11.0,13.0,-999,-99.99,,,-99.99,,2013-07-07 02:45:00,
2013-07-06 22:56:00,80.0,-99.9,30.19,SSW,197,12.0,13.0,-999,-99.99,,,-99.99,,2013-07-07 02:56:00,
2013-07-06 23:02:00,80.0,-99.9,30.19,SSW,200,11.0,13.0,-999,-99.99,,,-99.99,,2013-07-07 03:02:00,
2013-07-06 23:34:00,79.0,-99.9,30.19,SSW,195,12.0,13.0,-999,-99.99,,,-99.99,,2013-07-07 03:34:00,
2013-07-06 23:45:00,79.0,-99.9,30.20,SSW,199,11.0,12.0,-999,-99.99,,,-99.99,,2013-07-07 03:45:00,
2013-07-06 23:58:00,79.0,-99.9,30.19,SSW,192,12.0,13.0,-999,-99.99,,,-99.99,,2013-07-07 03:58:00,